Time,TemperatureF,DewpointF,PressureIn,WindDirection,WindDirectionDegrees,WindSpeedMPH,WindSpeedGustMPH,Humidity,HourlyPrecipIn,Conditions,Clouds,dailyrainin,SoftwareType,DateUTC
2013-01-25 00:00:00,20.5,9.2,29.73,North,0,0.0,0.0,61,0.00,,,0.00,WUHU216HW,2013-01-25 05:00:00,
2013-01-25 00:01:00,20.5,9.2,29.73,North,0,0.0,0.0,61,0.00,,,0.00,WUHU216HW,2013-01-25 05:01:00,
2013-01-25 00:03:00,20.5,9.2,29.73,North,0,0.0,0.0,61,0.00,,,0.00,WUHU216HW,2013-01-25 05:03:00,
2013-01-25 00:08:00,20.5,9.2,29.73,North,0,0.0,0.0,61,0.00,,,0.00,WUHU216HW,2013-01-25 05:08:00,
2013-01-25 00:13:00,20.5,9.2,29.73,North,0,0.0,0.0,61,0.00,,,0.00,WUHU216HW,2013-01-25 05:13:00,
2013-01-25 00:18:00,20.5,9.2,29.73,North,0,0.0,0.0,61,0.00,,,0.00,WUHU216HW,2013-01-25 05:18:00,
2013-01-25 00:23:00,20.5,9.2,29.72,North,0,0.0,0.0,61,0.00,,,0.00,WUHU216HW,2013-01-25 05:23:00,
2013-01-25 00:28:00,20.5,9.2,29.71,North,0,0.0,0.0,61,0.00,,,0.00,WUHU216HW,2013-01-25 05:28:00,
2013-01-25 00:33:00,20.5,9.2,29.71,North,0,0.0,0.0,61,0.00,,,0.00,WUHU216HW,2013-01-25 05:33:00,
2013-01-25 00:38:00,20.5,8.8,29.70,North,0,0.0,0.0,60,0.00,,,0.00,WUHU216HW,2013-01-25 05:38:00,
2013-01-25 00:43:00,20.5,9.2,29.70,North,0,0.0,0.0,61,0.00,,,0.00,WUHU216HW,2013-01-25 05:43:00,
2013-01-25 00:48:00,20.5,8.8,29.69,North,0,0.0,0.0,60,0.00,,,0.00,WUHU216HW,2013-01-25 05:48:00,
2013-01-25 00:54:00,20.5,9.2,29.68,North,0,0.0,0.0,61,0.00,,,0.00,WUHU216HW,2013-01-25 05:54:00,
2013-01-25 00:59:00,20.5,9.2,29.68,North,0,0.0,0.0,61,0.00,,,0.00,WUHU216HW,2013-01-25 05:59:00,
2013-01-25 01:04:00,20.5,9.2,29.69,North,0,0.0,0.0,61,0.00,,,0.00,WUHU216HW,2013-01-25 06:04:00,
2013-01-25 01:09:00,20.5,8.8,29.68,North,0,0.0,0.0,60,0.00,,,0.00,WUHU216HW,2013-01-25 06:09:00,
2013-01-25 01:14:00,20.5,8.8,29.70,North,0,0.0,0.0,60,0.00,,,0.00,WUHU216HW,2013-01-25 06:14:00,
2013-01-25 01:19:00,20.5,9.2,29.71,North,0,0.0,0.0,61,0.00,,,0.00,WUHU216HW,2013-01-25 06:19:00,
2013-01-25 01:24:00,20.5,9.2,29.69,North,0,0.0,0.0,61,0.00,,,0.00,WUHU216HW,2013-01-25 06:24:00,
2013-01-25 01:29:00,20.5,9.2,29.69,North,0,0.0,0.0,61,0.00,,,0.00,WUHU216HW,2013-01-25 06:29:00,
2013-01-25 01:34:00,20.7,9.4,29.71,North,0,0.0,0.0,61,0.00,,,0.00,WUHU216HW,2013-01-25 06:34:00,
2013-01-25 01:39:00,20.7,9.0,29.71,North,0,0.0,0.0,60,0.00,,,0.00,WUHU216HW,2013-01-25 06:39:00,
2013-01-25 01:44:00,20.7,9.0,29.70,North,0,0.0,0.0,60,0.00,,,0.00,WUHU216HW,2013-01-25 06:44:00,
2013-01-25 01:49:00,20.7,9.0,29.70,North,0,0.0,0.0,60,0.00,,,0.00,WUHU216HW,2013-01-25 06:49:00,
2013-01-25 01:54:00,20.7,9.0,29.70,North,0,0.0,0.0,60,0.00,,,0.00,WUHU216HW,2013-01-25 06:54:00,
2013-01-25 01:59:00,20.7,9.0,29.70,North,0,0.0,0.0,60,0.00,,,0.00,WUHU216HW,2013-01-25 06:59:00,
2013-01-25 02:04:00,20.7,9.0,29.70,North,0,0.0,0.0,60,0.00,,,0.00,WUHU216HW,2013-01-25 07:04:00,
2013-01-25 02:09:00,20.9,9.2,29.70,North,0,0.0,0.0,60,0.00,,,0.00,WUHU216HW,2013-01-25 07:09:00,
2013-01-25 02:14:00,20.9,9.2,29.69,North,0,0.0,0.0,60,0.00,,,0.00,WUHU216HW,2013-01-25 07:14:00,
2013-01-25 02:19:00,20.9,9.2,29.68,North,0,0.0,0.0,60,0.00,,,0.00,WUHU216HW,2013-01-25 07:19:00,
2013-01-25 02:24:00,20.9,8.7,29.67,North,0,0.0,0.0,59,0.00,,,0.00,WUHU216HW,2013-01-25 07:24:00,
2013-01-25 02:29:00,20.9,8.7,29.67,North,0,0.0,0.0,59,0.00,,,0.00,WUHU216HW,2013-01-25 07:29:00,
2013-01-25 02:34:00,20.9,8.7,29.66,North,0,0.0,0.0,59,0.00,,,0.00,WUHU216HW,2013-01-25 07:34:00,
2013-01-25 02:40:00,20.9,9.2,29.65,North,0,0.0,0.0,60,0.00,,,0.00,WUHU216HW,2013-01-25 07:40:00,
2013-01-25 02:45:00,20.9,9.2,29.65,North,0,0.0,0.0,60,0.00,,,0.00,WUHU216HW,2013-01-25 07:45:00,
2013-01-25 02:50:00,20.9,9.2,29.66,North,0,0.0,0.0,60,0.00,,,0.00,WUHU216HW,2013-01-25 07:50:00,
2013-01-25 02:55:00,21.1,9.4,29.66,North,0,0.0,0.0,60,0.00,,,0.00,WUHU216HW,2013-01-25 07:55:00,
2013-01-25 03:00:00,21.1,9.4,29.66,North,0,0.0,0.0,60,0.00,,,0.00,WUHU216HW,2013-01-25 08:00:00,
2013-01-25 03:05:00,21.1,9.4,29.67,North,0,0.0,0.0,60,0.00,,,0.00,WUHU216HW,2013-01-25 08:05:00,
2013-01-25 03:10:00,21.1,9.4,29.67,North,0,0.0,0.0,60,0.00,,,0.00,WUHU216HW,2013-01-25 08:10:00,
2013-01-25 03:15:00,21.2,9.1,29.66,North,0,0.0,0.0,59,0.00,,,0.00,WUHU216HW,2013-01-25 08:15:00,
2013-01-25 03:20:00,21.2,9.1,29.67,North,0,0.0,0.0,59,0.00,,,0.00,WUHU216HW,2013-01-25 08:20:00,
2013-01-25 03:25:00,21.2,9.1,29.66,North,0,0.0,0.0,59,0.00,,,0.00,WUHU216HW,2013-01-25 08:25:00,
2013-01-25 03:30:00,21.2,9.1,29.65,North,0,0.0,0.0,59,0.00,,,0.00,WUHU216HW,2013-01-25 08:30:00,
2013-01-25 03:35:00,21.2,8.7,29.65,North,0,0.0,0.0,58,0.00,,,0.00,WUHU216HW,2013-01-25 08:35:00,
2013-01-25 03:41:00,21.2,9.1,29.65,North,0,0.0,0.0,59,0.00,,,0.00,WUHU216HW,2013-01-25 08:41:00,
2013-01-25 03:46:00,21.2,8.7,29.64,North,0,0.0,0.0,58,0.00,,,0.00,WUHU216HW,2013-01-25 08:46:00,
2013-01-25 03:51:00,21.2,8.7,29.64,North,0,0.0,0.0,58,0.00,,,0.00,WUHU216HW,2013-01-25 08:51:00,
2013-01-25 03:56:00,21.2,8.7,29.63,North,0,0.0,0.0,58,0.00,,,0.00,WUHU216HW,2013-01-25 08:56:00,
2013-01-25 04:01:00,21.2,8.7,29.63,North,0,0.0,0.0,58,0.00,,,0.00,WUHU216HW,2013-01-25 09:01:00,
2013-01-25 04:06:00,21.2,9.1,29.63,North,0,0.0,0.0,59,0.00,,,0.00,WUHU216HW,2013-01-25 09:06:00,
2013-01-25 04:11:00,21.4,9.3,29.63,North,0,0.0,0.0,59,0.00,,,0.00,WUHU216HW,2013-01-25 09:11:00,
2013-01-25 04:16:00,21.4,8.9,29.61,North,0,0.0,0.0,58,0.00,,,0.00,WUHU216HW,2013-01-25 09:16:00,
2013-01-25 04:21:00,21.4,8.9,29.61,North,0,0.0,0.0,58,0.00,,,0.00,WUHU216HW,2013-01-25 09:21:00,
2013-01-25 04:26:00,21.4,8.9,29.60,North,0,0.0,0.0,58,0.00,,,0.00,WUHU216HW,2013-01-25 09:26:00,
2013-01-25 04:31:00,21.4,8.9,29.59,North,0,0.0,0.0,58,0.00,,,0.00,WUHU216HW,2013-01-25 09:31:00,
2013-01-25 04:36:00,21.2,8.7,29.58,North,0,0.0,0.0,58,0.00,,,0.00,WUHU216HW,2013-01-25 09:36:00,
2013-01-25 04:41:00,21.4,9.3,29.58,North,0,0.0,0.0,59,0.00,,,0.00,WUHU216HW,2013-01-25 09:41:00,
2013-01-25 04:46:00,21.4,8.9,29.57,North,0,0.0,0.0,58,0.00,,,0.00,WUHU216HW,2013-01-25 09:46:00,
2013-01-25 04:51:00,21.4,8.9,29.57,North,0,0.0,0.0,58,0.00,,,0.00,WUHU216HW,2013-01-25 09:51:00,
2013-01-25 04:56:00,21.2,8.7,29.57,North,0,0.0,0.0,58,0.00,,,0.00,WUHU216HW,2013-01-25 09:56:00,
2013-01-25 05:01:00,21.4,8.9,29.57,North,0,0.0,0.0,58,0.00,,,0.00,WUHU216HW,2013-01-25 10:01:00,
2013-01-25 05:06:00,21.4,8.9,29.57,North,0,0.0,0.0,58,0.00,,,0.00,WUHU216HW,2013-01-25 10:06:00,
2013-01-25 05:11:00,21.4,8.9,29.56,North,0,0.0,0.0,58,0.00,,,0.00,WUHU216HW,2013-01-25 10:11:00,
2013-01-25 05:16:00,21.4,8.9,29.56,North,0,0.0,0.0,58,0.00,,,0.00,WUHU216HW,2013-01-25 10:16:00,
2013-01-25 05:21:00,21.6,9.0,29.55,North,0,0.0,0.0,58,0.00,,,0.00,WUHU216HW,2013-01-25 10:21:00,
2013-01-25 05:27:00,21.6,9.0,29.55,North,0,0.0,0.0,58,0.00,,,0.00,WUHU216HW,2013-01-25 10:27:00,
2013-01-25 05:32:00,21.6,9.0,29.54,North,0,0.0,0.0,58,0.00,,,0.00,WUHU216HW,2013-01-25 10:32:00,
2013-01-25 05:37:00,21.6,9.0,29.55,North,0,0.0,0.0,58,0.00,,,0.00,WUHU216HW,2013-01-25 10:37:00,
2013-01-25 05:42:00,21.6,9.0,29.55,North,0,0.0,0.0,58,0.00,,,0.00,WUHU216HW,2013-01-25 10:42:00,
2013-01-25 05:47:00,21.6,9.0,29.54,North,0,0.0,0.0,58,0.00,,,0.00,WUHU216HW,2013-01-25 10:47:00,
2013-01-25 05:52:00,21.6,9.0,29.54,North,0,0.0,0.0,58,0.00,,,0.00,WUHU216HW,2013-01-25 10:52:00,
2013-01-25 05:57:00,21.6,9.5,29.54,North,0,0.0,0.0,59,0.00,,,0.00,WUHU216HW,2013-01-25 10:57:00,
2013-01-25 06:02:00,21.6,9.0,29.53,North,0,0.0,0.0,58,0.00,,,0.00,WUHU216HW,2013-01-25 11:02:00,
2013-01-25 06:07:00,21.6,9.0,29.53,North,0,0.0,0.0,58,0.00,,,0.00,WUHU216HW,2013-01-25 11:07:00,
2013-01-25 06:12:00,21.6,9.0,29.53,North,0,0.0,0.0,58,0.00,,,0.00,WUHU216HW,2013-01-25 11:12:00,
2013-01-25 06:17:00,21.8,9.2,29.53,North,0,0.0,0.0,58,0.00,,,0.00,WUHU216HW,2013-01-25 11:17:00,
2013-01-25 06:22:00,21.8,9.2,29.53,North,0,0.0,0.0,58,0.00,,,0.00,WUHU216HW,2013-01-25 11:22:00,
2013-01-25 06:27:00,21.6,9.0,29.54,North,0,0.0,0.0,58,0.00,,,0.00,WUHU216HW,2013-01-25 11:27:00,
2013-01-25 06:32:00,21.8,9.2,29.54,North,0,0.0,0.0,58,0.00,,,0.00,WUHU216HW,2013-01-25 11:32:00,
2013-01-25 06:37:00,21.8,9.2,29.53,North,0,0.0,0.0,58,0.00,,,0.00,WUHU216HW,2013-01-25 11:37:00,
2013-01-25 06:42:00,21.8,9.6,29.53,North,0,0.0,0.0,59,0.00,,,0.00,WUHU216HW,2013-01-25 11:42:00,
2013-01-25 06:47:00,21.8,9.2,29.52,North,0,0.0,0.0,58,0.00,,,0.00,WUHU216HW,2013-01-25 11:47:00,
2013-01-25 06:52:00,21.8,9.2,29.52,North,0,0.0,0.0,58,0.00,,,0.00,WUHU216HW,2013-01-25 11:52:00,
2013-01-25 06:57:00,21.8,10.0,29.52,North,0,0.0,0.0,60,0.00,,,0.00,WUHU216HW,2013-01-25 11:57:00,
2013-01-25 07:02:00,21.4,10.7,29.51,North,0,0.0,0.0,63,0.00,,,0.00,WUHU216HW,2013-01-25 12:02:00,
2013-01-25 07:08:00,21.1,9.7,29.51,North,0,0.0,0.0,61,0.00,,,0.00,WUHU216HW,2013-01-25 12:08:00,
2013-01-25 07:13:00,20.5,5.9,29.51,North,0,0.0,0.0,53,0.00,,,0.00,WUHU216HW,2013-01-25 12:13:00,
2013-01-25 07:18:00,20.5,2.9,29.51,North,0,0.0,0.0,46,0.00,,,0.00,WUHU216HW,2013-01-25 12:18:00,
2013-01-25 07:23:00,20.3,1.8,29.51,North,0,0.0,0.0,44,0.00,,,0.00,WUHU216HW,2013-01-25 12:23:00,
2013-01-25 07:28:00,20.3,-2.5,29.51,North,0,0.0,0.0,36,0.00,,,0.00,WUHU216HW,2013-01-25 12:28:00,
2013-01-25 07:33:00,20.3,-3.8,29.50,North,0,0.0,0.0,34,0.00,,,0.00,WUHU216HW,2013-01-25 12:33:00,
2013-01-25 07:38:00,20.3,-7.8,29.50,North,0,0.0,0.0,28,0.00,,,0.00,WUHU216HW,2013-01-25 12:38:00,
2013-01-25 07:43:00,20.2,-4.0,29.50,North,0,0.0,0.0,34,0.00,,,0.00,WUHU216HW,2013-01-25 12:43:00,
2013-01-25 07:49:00,20.0,-12.2,29.50,North,0,0.0,0.0,23,0.00,,,0.00,WUHU216HW,2013-01-25 12:49:00,
2013-01-25 07:54:00,20.2,-15.8,29.50,North,0,0.0,0.0,19,0.00,,,0.00,WUHU216HW,2013-01-25 12:54:00,
2013-01-25 07:59:00,20.0,-16.0,29.50,North,0,0.0,0.0,19,0.00,,,0.00,WUHU216HW,2013-01-25 12:59:00,
2013-01-25 08:04:00,20.0,-20.0,29.49,North,0,0.0,0.0,16,0.00,,,0.00,WUHU216HW,2013-01-25 13:04:00,
2013-01-25 08:09:00,20.0,-27.9,29.48,North,0,0.0,0.0,7,0.00,,,0.00,WUHU216HW,2013-01-25 13:09:00,
2013-01-25 08:14:00,20.0,-27.9,29.48,North,0,0.0,0.0,9,0.00,,,0.00,WUHU216HW,2013-01-25 13:14:00,
2013-01-25 08:19:00,20.0,-27.9,29.48,North,0,0.0,0.0,5,0.00,,,0.00,WUHU216HW,2013-01-25 13:19:00,
2013-01-25 08:24:00,20.0,-27.9,29.49,North,0,0.0,0.0,6,0.00,,,0.00,WUHU216HW,2013-01-25 13:24:00,
2013-01-25 08:30:00,20.0,-27.9,29.49,North,0,0.0,0.0,5,0.00,,,0.00,WUHU216HW,2013-01-25 13:30:00,
2013-01-25 08:35:00,20.2,-27.7,29.49,North,0,0.0,0.0,4,0.00,,,0.00,WUHU216HW,2013-01-25 13:35:00,
2013-01-25 08:40:00,20.0,-27.9,29.48,North,0,0.0,0.0,6,0.00,,,0.00,WUHU216HW,2013-01-25 13:40:00,
2013-01-25 08:45:00,20.0,-27.9,29.49,North,0,0.0,0.0,6,0.00,,,0.00,WUHU216HW,2013-01-25 13:45:00,
2013-01-25 08:50:00,20.2,-22.5,29.49,North,0,0.0,0.0,14,0.00,,,0.00,WUHU216HW,2013-01-25 13:50:00,
2013-01-25 08:55:00,20.3,-27.6,29.49,North,0,0.0,0.0,4,0.00,,,0.00,WUHU216HW,2013-01-25 13:55:00,
2013-01-25 09:00:00,20.5,-27.5,29.48,North,0,0.0,0.0,2,0.00,,,0.00,WUHU216HW,2013-01-25 14:00:00,
2013-01-25 09:05:00,20.7,-27.3,29.48,North,0,0.0,0.0,5,0.00,,,0.00,WUHU216HW,2013-01-25 14:05:00,
2013-01-25 09:10:00,20.9,-27.3,29.48,North,0,0.0,0.0,5,0.00,,,0.00,WUHU216HW,2013-01-25 14:10:00,
2013-01-25 09:15:00,21.1,-27.1,29.48,North,0,0.0,0.0,7,0.00,,,0.00,WUHU216HW,2013-01-25 14:15:00,
2013-01-25 09:20:00,21.2,-24.3,29.47,North,0,0.0,0.0,12,0.00,,,0.00,WUHU216HW,2013-01-25 14:20:00,
2013-01-25 09:25:00,21.2,-20.3,29.47,North,0,0.0,0.0,15,0.00,,,0.00,WUHU216HW,2013-01-25 14:25:00,
2013-01-25 09:30:00,21.2,-12.1,29.47,North,0,0.0,0.0,22,0.00,,,0.00,WUHU216HW,2013-01-25 14:30:00,
2013-01-25 09:35:00,21.1,-8.0,29.48,North,0,0.0,0.0,27,0.00,,,0.00,WUHU216HW,2013-01-25 14:35:00,
2013-01-25 09:40:00,21.1,-8.9,29.48,North,0,0.0,0.0,26,0.00,,,0.00,WUHU216HW,2013-01-25 14:40:00,
2013-01-25 09:46:00,21.4,-6.9,29.48,North,0,0.0,0.0,28,0.00,,,0.00,WUHU216HW,2013-01-25 14:46:00,
2013-01-25 09:51:00,21.6,-3.9,29.48,North,0,0.0,0.0,32,0.00,,,0.00,WUHU216HW,2013-01-25 14:51:00,
2013-01-25 09:56:00,21.4,-4.0,29.48,North,0,0.0,0.0,32,0.00,,,0.00,WUHU216HW,2013-01-25 14:56:00,
2013-01-25 10:01:00,21.2,-3.0,29.48,North,0,0.0,0.0,34,0.00,,,0.00,WUHU216HW,2013-01-25 15:01:00,
2013-01-25 10:06:00,21.4,-2.8,29.48,North,0,0.0,0.0,34,0.00,,,0.00,WUHU216HW,2013-01-25 15:06:00,
2013-01-25 10:11:00,21.4,-1.0,29.48,North,0,0.0,0.0,37,0.00,,,0.00,WUHU216HW,2013-01-25 15:11:00,
2013-01-25 10:16:00,21.6,-0.2,29.49,North,0,0.0,0.0,38,0.00,,,0.00,WUHU216HW,2013-01-25 15:16:00,
2013-01-25 10:21:00,22.0,0.7,29.49,North,0,0.0,0.0,39,0.00,,,0.00,WUHU216HW,2013-01-25 15:21:00,
2013-01-25 10:26:00,22.1,2.0,29.49,North,0,0.0,0.0,41,0.00,,,0.00,WUHU216HW,2013-01-25 15:26:00,
2013-01-25 10:31:00,22.5,2.8,29.49,North,0,0.0,0.0,42,0.00,,,0.00,WUHU216HW,2013-01-25 15:31:00,
2013-01-25 10:36:00,22.5,3.8,29.49,North,0,0.0,0.0,44,0.00,,,0.00,WUHU216HW,2013-01-25 15:36:00,
2013-01-25 10:41:00,22.7,4.0,29.49,North,0,0.0,0.0,44,0.00,,,0.00,WUHU216HW,2013-01-25 15:41:00,
2013-01-25 10:46:00,22.9,4.6,29.47,North,0,0.0,0.0,45,0.00,,,0.00,WUHU216HW,2013-01-25 15:46:00,
2013-01-25 10:51:00,22.7,5.0,29.47,North,0,0.0,0.0,46,0.00,,,0.00,WUHU216HW,2013-01-25 15:51:00,
2013-01-25 10:56:00,22.7,5.4,29.48,North,0,0.0,0.0,47,0.00,,,0.00,WUHU216HW,2013-01-25 15:56:00,
2013-01-25 11:01:00,22.9,5.6,29.48,North,0,0.0,0.0,47,0.00,,,0.00,WUHU216HW,2013-01-25 16:01:00,
2013-01-25 11:06:00,23.0,7.6,29.47,North,0,0.0,0.0,51,0.00,,,0.00,WUHU216HW,2013-01-25 16:06:00,
2013-01-25 11:12:00,23.0,7.6,29.48,North,0,0.0,0.0,51,0.00,,,0.00,WUHU216HW,2013-01-25 16:12:00,
2013-01-25 11:17:00,23.0,7.6,29.48,North,0,0.0,0.0,51,0.00,,,0.00,WUHU216HW,2013-01-25 16:17:00,
2013-01-25 11:22:00,23.6,7.7,29.48,North,0,0.0,0.0,50,0.00,,,0.00,WUHU216HW,2013-01-25 16:22:00,
2013-01-25 11:27:00,24.1,9.4,29.48,North,0,0.0,0.0,53,0.00,,,0.00,WUHU216HW,2013-01-25 16:27:00,
2013-01-25 11:32:00,24.8,10.4,29.46,North,0,0.0,0.0,54,0.00,,,0.00,WUHU216HW,2013-01-25 16:32:00,
2013-01-25 11:37:00,24.8,11.4,29.46,North,0,0.0,0.0,56,0.00,,,0.00,WUHU216HW,2013-01-25 16:37:00,
2013-01-25 11:42:00,25.4,13.1,29.46,North,0,0.0,0.0,59,0.00,,,0.00,WUHU216HW,2013-01-25 16:42:00,
2013-01-25 11:47:00,25.4,12.3,29.46,North,0,0.0,0.0,57,0.00,,,0.00,WUHU216HW,2013-01-25 16:47:00,
2013-01-25 11:52:00,25.9,12.7,29.46,North,0,0.0,0.0,57,0.00,,,0.00,WUHU216HW,2013-01-25 16:52:00,
2013-01-25 11:57:00,26.3,14.2,29.45,North,0,0.0,0.0,60,0.00,,,0.00,WUHU216HW,2013-01-25 16:57:00,
2013-01-25 12:02:00,25.7,13.8,29.45,North,0,0.0,0.0,60,0.00,,,0.00,WUHU216HW,2013-01-25 17:02:00,
2013-01-25 12:07:00,25.6,12.8,29.45,North,0,0.0,0.0,58,0.00,,,0.00,WUHU216HW,2013-01-25 17:07:00,
2013-01-25 12:12:00,26.3,13.9,29.45,North,0,0.0,0.0,59,0.00,,,0.00,WUHU216HW,2013-01-25 17:12:00,
2013-01-25 12:17:00,27.0,15.7,29.45,North,0,0.0,0.0,62,0.00,,,0.00,WUHU216HW,2013-01-25 17:17:00,
2013-01-25 12:22:00,27.4,16.0,29.45,North,0,0.0,0.0,62,0.00,,,0.00,WUHU216HW,2013-01-25 17:22:00,
2013-01-25 12:27:00,27.2,15.1,29.45,North,0,0.0,0.0,60,0.00,,,0.00,WUHU216HW,2013-01-25 17:27:00,
2013-01-25 12:32:00,27.0,15.3,29.45,North,0,0.0,0.0,61,0.00,,,0.00,WUHU216HW,2013-01-25 17:32:00,
2013-01-25 12:37:00,27.0,15.3,29.44,North,0,0.0,0.0,61,0.00,,,0.00,WUHU216HW,2013-01-25 17:37:00,
2013-01-25 12:42:00,26.6,14.6,29.44,North,0,0.0,0.0,60,0.00,,,0.00,WUHU216HW,2013-01-25 17:42:00,
2013-01-25 12:47:00,26.8,15.5,29.43,North,0,0.0,0.0,62,0.00,,,0.00,WUHU216HW,2013-01-25 17:47:00,
2013-01-25 12:52:00,26.8,15.1,29.43,North,0,0.0,0.0,61,0.00,,,0.00,WUHU216HW,2013-01-25 17:52:00,
2013-01-25 12:57:00,27.4,16.0,29.43,North,0,0.0,0.0,62,0.00,,,0.00,WUHU216HW,2013-01-25 17:57:00,
2013-01-25 13:02:00,27.0,15.7,29.42,North,0,0.0,0.0,62,0.00,,,0.00,WUHU216HW,2013-01-25 18:02:00,
2013-01-25 13:07:00,27.0,15.7,29.42,North,0,0.0,0.0,62,0.00,,,0.00,WUHU216HW,2013-01-25 18:07:00,
2013-01-25 13:12:00,27.0,15.7,29.42,North,0,0.0,0.0,62,0.00,,,0.00,WUHU216HW,2013-01-25 18:12:00,
2013-01-25 13:17:00,27.4,16.0,29.41,North,0,0.0,0.0,62,0.00,,,0.00,WUHU216HW,2013-01-25 18:17:00,
2013-01-25 13:22:00,27.7,16.4,29.42,North,0,0.0,0.0,62,0.00,,,0.00,WUHU216HW,2013-01-25 18:22:00,
2013-01-25 13:27:00,27.5,16.2,29.42,North,0,0.0,0.0,62,0.00,,,0.00,WUHU216HW,2013-01-25 18:27:00,
2013-01-25 13:32:00,27.4,16.0,29.41,North,0,0.0,0.0,62,0.00,,,0.00,WUHU216HW,2013-01-25 18:32:00,
2013-01-25 13:37:00,27.5,16.2,29.41,North,0,0.0,0.0,62,0.00,,,0.00,WUHU216HW,2013-01-25 18:37:00,
2013-01-25 13:42:00,27.7,16.4,29.41,North,0,0.0,0.0,62,0.00,,,0.00,WUHU216HW,2013-01-25 18:42:00,
2013-01-25 13:47:00,27.7,16.4,29.40,North,0,0.0,0.0,62,0.00,,,0.00,WUHU216HW,2013-01-25 18:47:00,
2013-01-25 13:52:00,27.7,16.4,29.40,North,0,0.0,0.0,62,0.00,,,0.00,WUHU216HW,2013-01-25 18:52:00,
2013-01-25 13:57:00,27.9,16.6,29.40,North,0,0.0,0.0,62,0.00,,,0.00,WUHU216HW,2013-01-25 18:57:00,
2013-01-25 14:02:00,28.1,16.7,29.39,North,0,0.0,0.0,62,0.00,,,0.00,WUHU216HW,2013-01-25 19:02:00,
2013-01-25 14:07:00,27.9,16.6,29.40,North,0,0.0,0.0,62,0.00,,,0.00,WUHU216HW,2013-01-25 19:07:00,
2013-01-25 14:13:00,27.7,16.4,29.39,North,0,0.0,0.0,62,0.00,,,0.00,WUHU216HW,2013-01-25 19:13:00,
2013-01-25 14:18:00,28.1,16.7,29.39,North,0,0.0,0.0,62,0.00,,,0.00,WUHU216HW,2013-01-25 19:18:00,
2013-01-25 14:23:00,27.7,16.4,29.39,North,0,0.0,0.0,62,0.00,,,0.00,WUHU216HW,2013-01-25 19:23:00,
2013-01-25 14:28:00,27.9,16.6,29.39,North,0,0.0,0.0,62,0.00,,,0.00,WUHU216HW,2013-01-25 19:28:00,
2013-01-25 14:33:00,27.9,16.6,29.39,North,0,0.0,0.0,62,0.00,,,0.00,WUHU216HW,2013-01-25 19:33:00,
2013-01-25 14:38:00,28.1,16.7,29.39,North,0,0.0,0.0,62,0.00,,,0.00,WUHU216HW,2013-01-25 19:38:00,
2013-01-25 14:43:00,28.4,17.1,29.38,North,0,0.0,0.0,62,0.00,,,0.00,WUHU216HW,2013-01-25 19:43:00,
2013-01-25 14:48:00,28.3,16.9,29.39,North,0,0.0,0.0,62,0.00,,,0.00,WUHU216HW,2013-01-25 19:48:00,
2013-01-25 14:53:00,28.3,16.9,29.38,North,0,0.0,0.0,62,0.00,,,0.00,WUHU216HW,2013-01-25 19:53:00,
2013-01-25 14:58:00,28.4,17.1,29.38,North,0,0.0,0.0,62,0.00,,,0.00,WUHU216HW,2013-01-25 19:58:00,
2013-01-25 15:03:00,28.1,16.7,29.39,North,0,0.0,0.0,62,0.00,,,0.00,WUHU216HW,2013-01-25 20:03:00,
2013-01-25 15:08:00,28.3,16.9,29.39,North,0,0.0,0.0,62,0.00,,,0.00,WUHU216HW,2013-01-25 20:08:00,
2013-01-25 15:13:00,28.4,17.1,29.38,North,0,0.0,0.0,62,0.00,,,0.00,WUHU216HW,2013-01-25 20:13:00,
2013-01-25 15:18:00,28.4,17.1,29.38,North,0,0.0,0.0,62,0.01,,,0.00,WUHU216HW,2013-01-25 20:18:00,
2013-01-25 15:23:00,28.3,16.9,29.38,North,0,0.0,0.0,62,0.01,,,0.01,WUHU216HW,2013-01-25 20:23:00,
2013-01-25 15:28:00,28.1,16.7,29.38,North,0,0.0,0.0,62,0.01,,,0.01,WUHU216HW,2013-01-25 20:28:00,
2013-01-25 15:33:00,28.1,16.7,29.38,North,0,0.0,0.0,62,0.01,,,0.01,WUHU216HW,2013-01-25 20:33:00,
2013-01-25 15:38:00,27.9,16.6,29.38,North,0,0.0,0.0,62,0.01,,,0.01,WUHU216HW,2013-01-25 20:38:00,
2013-01-25 15:43:00,28.1,16.7,29.39,North,0,0.0,0.0,62,0.01,,,0.01,WUHU216HW,2013-01-25 20:43:00,
2013-01-25 15:48:00,28.3,16.9,29.39,North,0,0.0,0.0,62,0.01,,,0.01,WUHU216HW,2013-01-25 20:48:00,
2013-01-25 15:54:00,28.1,16.7,29.39,North,0,0.0,0.0,62,0.01,,,0.01,WUHU216HW,2013-01-25 20:54:00,
2013-01-25 15:59:00,27.9,16.6,29.39,North,0,0.0,0.0,62,0.01,,,0.01,WUHU216HW,2013-01-25 20:59:00,
2013-01-25 16:04:00,27.9,16.6,29.39,North,0,0.0,0.0,62,0.01,,,0.01,WUHU216HW,2013-01-25 21:04:00,
2013-01-25 16:09:00,27.9,16.6,29.39,North,0,0.0,0.0,62,0.01,,,0.01,WUHU216HW,2013-01-25 21:09:00,
2013-01-25 16:14:00,27.9,16.2,29.39,North,0,0.0,0.0,61,0.01,,,0.01,WUHU216HW,2013-01-25 21:14:00,
2013-01-25 16:19:00,28.1,16.7,29.39,North,0,0.0,0.0,62,0.00,,,0.01,WUHU216HW,2013-01-25 21:19:00,
2013-01-25 16:24:00,27.9,16.6,29.40,North,0,0.0,0.0,62,0.00,,,0.01,WUHU216HW,2013-01-25 21:24:00,
2013-01-25 16:29:00,27.7,16.4,29.39,North,0,0.0,0.0,62,0.00,,,0.01,WUHU216HW,2013-01-25 21:29:00,
2013-01-25 16:34:00,27.7,16.4,29.39,North,0,0.0,0.0,62,0.00,,,0.01,WUHU216HW,2013-01-25 21:34:00,
2013-01-25 16:39:00,27.7,16.4,29.39,North,0,0.0,0.0,62,0.00,,,0.01,WUHU216HW,2013-01-25 21:39:00,
2013-01-25 16:44:00,27.7,16.4,29.39,North,0,0.0,0.0,62,0.00,,,0.01,WUHU216HW,2013-01-25 21:44:00,
2013-01-25 16:49:00,27.7,16.4,29.40,North,0,0.0,0.0,62,0.00,,,0.01,WUHU216HW,2013-01-25 21:49:00,
2013-01-25 16:54:00,27.5,16.2,29.40,North,0,0.0,0.0,62,0.00,,,0.01,WUHU216HW,2013-01-25 21:54:00,
2013-01-25 16:59:00,27.7,16.4,29.40,North,0,0.0,0.0,62,0.00,,,0.01,WUHU216HW,2013-01-25 21:59:00,
2013-01-25 17:04:00,27.5,16.2,29.41,North,0,0.0,0.0,62,0.00,,,0.01,WUHU216HW,2013-01-25 22:04:00,
2013-01-25 17:09:00,27.5,15.8,29.40,North,0,0.0,0.0,61,0.00,,,0.01,WUHU216HW,2013-01-25 22:09:00,
2013-01-25 17:14:00,27.4,15.7,29.40,North,0,0.0,0.0,61,0.00,,,0.01,WUHU216HW,2013-01-25 22:14:00,
2013-01-25 17:19:00,27.4,15.7,29.40,North,0,0.0,0.0,61,0.00,,,0.01,WUHU216HW,2013-01-25 22:19:00,
2013-01-25 17:24:00,27.4,15.7,29.40,North,0,0.0,0.0,61,0.00,,,0.01,WUHU216HW,2013-01-25 22:24:00,
2013-01-25 17:29:00,27.4,15.7,29.40,North,0,0.0,0.0,61,0.00,,,0.01,WUHU216HW,2013-01-25 22:29:00,
2013-01-25 17:34:00,27.4,15.7,29.40,North,0,0.0,0.0,61,0.00,,,0.01,WUHU216HW,2013-01-25 22:34:00,
2013-01-25 17:39:00,27.4,15.7,29.40,North,0,0.0,0.0,61,0.00,,,0.01,WUHU216HW,2013-01-25 22:39:00,
2013-01-25 17:45:00,27.2,15.5,29.39,North,0,0.0,0.0,61,0.00,,,0.01,WUHU216HW,2013-01-25 22:45:00,
2013-01-25 17:50:00,27.0,15.3,29.39,North,0,0.0,0.0,61,0.00,,,0.01,WUHU216HW,2013-01-25 22:50:00,
2013-01-25 17:55:00,27.0,14.9,29.39,North,0,0.0,0.0,60,0.00,,,0.01,WUHU216HW,2013-01-25 22:55:00,
2013-01-25 18:00:00,27.0,14.9,29.39,North,0,0.0,0.0,60,0.00,,,0.01,WUHU216HW,2013-01-25 23:00:00,
2013-01-25 18:05:00,27.0,14.9,29.39,North,0,0.0,0.0,60,0.00,,,0.01,WUHU216HW,2013-01-25 23:05:00,
2013-01-25 18:10:00,27.0,14.9,29.40,North,0,0.0,0.0,60,0.00,,,0.01,WUHU216HW,2013-01-25 23:10:00,
2013-01-25 18:15:00,27.0,14.5,29.40,North,0,0.0,0.0,59,0.00,,,0.01,WUHU216HW,2013-01-25 23:15:00,
2013-01-25 18:20:00,27.0,14.5,29.40,North,0,0.0,0.0,59,0.00,,,0.01,WUHU216HW,2013-01-25 23:20:00,
2013-01-25 18:25:00,27.0,14.9,29.40,North,0,0.0,0.0,60,0.00,,,0.01,WUHU216HW,2013-01-25 23:25:00,
2013-01-25 18:30:00,27.0,14.9,29.40,North,0,0.0,0.0,60,0.00,,,0.01,WUHU216HW,2013-01-25 23:30:00,
2013-01-25 18:35:00,27.0,14.9,29.40,North,0,0.0,0.0,60,0.00,,,0.01,WUHU216HW,2013-01-25 23:35:00,
2013-01-25 18:41:00,27.2,15.1,29.41,North,0,0.0,0.0,60,0.00,,,0.01,WUHU216HW,2013-01-25 23:41:00,
2013-01-25 18:46:00,27.2,15.1,29.41,North,0,0.0,0.0,60,0.00,,,0.01,WUHU216HW,2013-01-25 23:46:00,
2013-01-25 18:51:00,27.2,14.7,29.41,North,0,0.0,0.0,59,0.00,,,0.01,WUHU216HW,2013-01-25 23:51:00,
2013-01-25 18:56:00,27.2,14.7,29.41,North,0,0.0,0.0,59,0.00,,,0.01,WUHU216HW,2013-01-25 23:56:00,
2013-01-25 19:01:00,27.2,14.7,29.41,North,0,0.0,0.0,59,0.00,,,0.01,WUHU216HW,2013-01-26 00:01:00,
2013-01-25 19:06:00,27.2,14.7,29.41,North,0,0.0,0.0,59,0.00,,,0.01,WUHU216HW,2013-01-26 00:06:00,
2013-01-25 19:11:00,27.2,14.7,29.41,North,0,0.0,0.0,59,0.00,,,0.01,WUHU216HW,2013-01-26 00:11:00,
2013-01-25 19:16:00,27.0,14.5,29.42,North,0,0.0,0.0,59,0.00,,,0.01,WUHU216HW,2013-01-26 00:16:00,
2013-01-25 19:21:00,27.0,14.9,29.42,North,0,0.0,0.0,60,0.00,,,0.01,WUHU216HW,2013-01-26 00:21:00,
2013-01-25 19:26:00,26.6,14.1,29.42,North,0,0.0,0.0,59,0.00,,,0.01,WUHU216HW,2013-01-26 00:26:00,
2013-01-25 19:31:00,26.3,14.2,29.42,North,0,0.0,0.0,60,0.00,,,0.01,WUHU216HW,2013-01-26 00:31:00,
2013-01-25 19:36:00,25.9,13.5,29.42,North,0,0.0,0.0,59,0.00,,,0.01,WUHU216HW,2013-01-26 00:36:00,
2013-01-25 19:41:00,25.9,13.5,29.42,North,0,0.0,0.0,59,0.00,,,0.01,WUHU216HW,2013-01-26 00:41:00,
2013-01-25 19:46:00,25.6,13.6,29.43,North,0,0.0,0.0,60,0.00,,,0.01,WUHU216HW,2013-01-26 00:46:00,
2013-01-25 19:52:00,25.4,13.1,29.42,North,0,0.0,0.0,59,0.00,,,0.01,WUHU216HW,2013-01-26 00:52:00,
2013-01-25 19:57:00,25.0,12.7,29.43,North,0,0.0,0.0,59,0.00,,,0.01,WUHU216HW,2013-01-26 00:57:00,
2013-01-25 20:02:00,24.7,12.3,29.43,North,0,0.0,0.0,59,0.00,,,0.01,WUHU216HW,2013-01-26 01:02:00,
2013-01-25 20:07:00,24.3,12.0,29.42,North,0,0.0,0.0,59,0.00,,,0.01,WUHU216HW,2013-01-26 01:07:00,
2013-01-25 20:12:00,23.9,11.6,29.42,North,0,0.0,0.0,59,0.00,,,0.01,WUHU216HW,2013-01-26 01:12:00,
2013-01-25 20:17:00,23.9,10.4,29.42,North,0,0.0,0.0,56,0.00,,,0.01,WUHU216HW,2013-01-26 01:17:00,
2013-01-25 20:22:00,23.8,11.1,29.42,North,0,0.0,0.0,58,0.00,,,0.01,WUHU216HW,2013-01-26 01:22:00,
2013-01-25 20:27:00,23.4,10.7,29.43,North,0,0.0,0.0,58,0.00,,,0.01,WUHU216HW,2013-01-26 01:27:00,
2013-01-25 20:32:00,23.0,10.0,29.43,North,0,0.0,0.0,57,0.00,,,0.01,WUHU216HW,2013-01-26 01:32:00,
2013-01-25 20:37:00,22.7,10.1,29.43,North,0,0.0,0.0,58,0.00,,,0.01,WUHU216HW,2013-01-26 01:37:00,
2013-01-25 20:42:00,22.3,9.7,29.43,North,0,0.0,0.0,58,0.00,,,0.01,WUHU216HW,2013-01-26 01:42:00,
2013-01-25 20:47:00,22.0,9.4,29.43,North,0,0.0,0.0,58,0.00,,,0.01,WUHU216HW,2013-01-26 01:47:00,
2013-01-25 20:52:00,22.0,9.4,29.43,North,0,0.0,0.0,58,0.00,,,0.01,WUHU216HW,2013-01-26 01:52:00,
2013-01-25 20:57:00,21.4,9.3,29.43,North,0,0.0,0.0,59,0.00,,,0.01,WUHU216HW,2013-01-26 01:57:00,
2013-01-25 21:02:00,21.4,8.5,29.42,North,0,0.0,0.0,57,0.00,,,0.01,WUHU216HW,2013-01-26 02:02:00,
2013-01-25 21:07:00,21.6,6.6,29.43,North,0,0.0,0.0,52,0.00,,,0.01,WUHU216HW,2013-01-26 02:07:00,
2013-01-25 21:12:00,22.0,6.1,29.43,North,0,0.0,0.0,50,0.00,,,0.01,WUHU216HW,2013-01-26 02:12:00,
2013-01-25 21:17:00,21.8,5.9,29.43,North,0,0.0,0.0,50,0.00,,,0.01,WUHU216HW,2013-01-26 02:17:00,
2013-01-25 21:23:00,21.8,3.1,29.42,North,0,0.0,0.0,44,0.00,,,0.01,WUHU216HW,2013-01-26 02:23:00,
2013-01-25 21:28:00,21.6,6.6,29.42,North,0,0.0,0.0,52,0.00,,,0.01,WUHU216HW,2013-01-26 02:28:00,
2013-01-25 21:33:00,21.2,6.2,29.42,North,0,0.0,0.0,52,0.00,,,0.01,WUHU216HW,2013-01-26 02:33:00,
2013-01-25 21:38:00,21.2,4.0,29.42,North,0,0.0,0.0,47,0.00,,,0.01,WUHU216HW,2013-01-26 02:38:00,
2013-01-25 21:43:00,21.4,2.8,29.42,North,0,0.0,0.0,44,0.00,,,0.01,WUHU216HW,2013-01-26 02:43:00,
2013-01-25 21:48:00,21.2,4.0,29.42,North,0,0.0,0.0,47,0.00,,,0.01,WUHU216HW,2013-01-26 02:48:00,
2013-01-25 21:53:00,21.1,2.4,29.42,North,0,0.0,0.0,44,0.00,,,0.01,WUHU216HW,2013-01-26 02:53:00,
2013-01-25 21:58:00,20.3,4.6,29.42,North,0,0.0,0.0,50,0.00,,,0.01,WUHU216HW,2013-01-26 02:58:00,
2013-01-25 22:03:00,19.8,5.3,29.42,North,0,0.0,0.0,53,0.00,,,0.01,WUHU216HW,2013-01-26 03:03:00,
2013-01-25 22:08:00,19.4,5.0,29.42,North,0,0.0,0.0,53,0.00,,,0.01,WUHU216HW,2013-01-26 03:08:00,
2013-01-25 22:13:00,19.1,4.2,29.42,North,0,0.0,0.0,52,0.00,,,0.01,WUHU216HW,2013-01-26 03:13:00,
2013-01-25 22:18:00,18.5,4.1,29.42,North,0,0.0,0.0,53,0.00,,,0.01,WUHU216HW,2013-01-26 03:18:00,
2013-01-25 22:23:00,18.4,2.8,29.42,North,0,0.0,0.0,50,0.00,,,0.01,WUHU216HW,2013-01-26 03:23:00,
2013-01-25 22:28:00,18.4,0.5,29.42,North,0,0.0,0.0,45,0.00,,,0.01,WUHU216HW,2013-01-26 03:28:00,
2013-01-25 22:33:00,18.4,1.5,29.42,North,0,0.0,0.0,47,0.00,,,0.01,WUHU216HW,2013-01-26 03:33:00,
2013-01-25 22:38:00,18.4,2.3,29.42,North,0,0.0,0.0,49,0.00,,,0.01,WUHU216HW,2013-01-26 03:38:00,
2013-01-25 22:43:00,18.4,0.5,29.42,North,0,0.0,0.0,45,0.00,,,0.01,WUHU216HW,2013-01-26 03:43:00,
2013-01-25 22:48:00,18.7,0.8,29.42,North,0,0.0,0.0,45,0.00,,,0.01,WUHU216HW,2013-01-26 03:48:00,
2013-01-25 22:53:00,19.4,-1.5,29.42,North,0,0.0,0.0,39,0.00,,,0.01,WUHU216HW,2013-01-26 03:53:00,
2013-01-25 22:58:00,19.8,-1.2,29.42,North,0,0.0,0.0,39,0.00,,,0.01,WUHU216HW,2013-01-26 03:58:00,
2013-01-25 23:03:00,20.3,-4.9,29.42,North,0,0.0,0.0,32,0.00,,,0.01,WUHU216HW,2013-01-26 04:03:00,
2013-01-25 23:09:00,21.4,-10.2,29.42,North,0,0.0,0.0,24,0.00,,,0.01,WUHU216HW,2013-01-26 04:09:00,
2013-01-25 23:14:00,22.0,-2.3,29.43,North,0,0.0,0.0,34,0.00,,,0.01,WUHU216HW,2013-01-26 04:14:00,
2013-01-25 23:19:00,22.0,-2.3,29.43,North,0,0.0,0.0,34,0.00,,,0.01,WUHU216HW,2013-01-26 04:19:00,
2013-01-25 23:24:00,22.1,-0.9,29.43,North,0,0.0,0.0,36,0.00,,,0.01,WUHU216HW,2013-01-26 04:24:00,
2013-01-25 23:29:00,22.3,-2.0,29.43,North,0,0.0,0.0,34,0.00,,,0.01,WUHU216HW,2013-01-26 04:29:00,
2013-01-25 23:34:00,22.7,-9.1,29.44,North,0,0.0,0.0,24,0.00,,,0.01,WUHU216HW,2013-01-26 04:34:00,
2013-01-25 23:39:00,23.4,-2.9,29.44,North,0,0.0,0.0,31,0.00,,,0.01,WUHU216HW,2013-01-26 04:39:00,
2013-01-25 23:44:00,23.9,0.7,29.45,North,0,0.0,0.0,36,0.00,,,0.01,WUHU216HW,2013-01-26 04:44:00,
2013-01-25 23:49:00,23.9,1.9,29.45,North,0,0.0,0.0,38,0.00,,,0.01,WUHU216HW,2013-01-26 04:49:00,
2013-01-25 23:54:00,24.1,2.7,29.45,North,0,0.0,0.0,39,0.00,,,0.01,WUHU216HW,2013-01-26 04:54:00,
2013-01-25 23:59:00,24.1,4.3,29.45,North,0,0.0,0.0,42,0.00,,,0.01,WUHU216HW,2013-01-26 04:59:00,